OneWeb SL0044

operational
NORAD ID: 45150 Int'l Des: 2020-008 Owner: ONEWEB Country: UK Constellation: oneweb
LEOCIRCULARPOLARONEWEB_TYPE

About OneWeb SL0044

Description loading...

Live Position

Loading 3D Globe...

Upcoming Passes

Altitude History

Altitude vs Time

uPlot chart will show altitude changes over time

Two-Line Element Set

1 45150U 20008V 25303.93055202 .00000336 00000-0 92666-3 0 9998
2 45150 87.8776 81.9601 0001292 98.2651 261.8623 13.10370690278454
Epoch: Oct 30, 2025 • Age: 10 hours

Current Status

Altitude 1225.3 km
Velocity 7.24 km/s
Sub-Earth Point -4.89°S, 95.62°E
Launch Date Feb 6, 2020
Age 5.7 years
Type internet

Technical Details

Classification Payload
Mass 148.00 kg
Dry Mass 140.00 kg
Total Mass 148.00 kg
Length 1.30 m
Diameter 1.00 m
Span 5.00 m
Shape Trapezoid+2 pan
Manufacturer ONEWUS
Bus Type ARROW
Phase Status In Orbit
Owner/State ONEWEB/UK

Large Constellations

Loading constellations...